Terug naar catalogus

SL-16 DEB

ActiefLEO
NORAD 22374·DEBRIS·🇷🇺 Russia

Gelanceerd Dec 25, 1992 vanaf Baikonur Cosmodrome

Loading…

Volgende Passages (komende 24 uur)

TLE

VersSource: Space-Track

Epoch: Sep 14, 2026, 14:58 UTC

1 22374U 92093BP  26257.62416392  .00000447  00000-0  34970-3 0  9997
2 22374  70.7887 320.7516 0173458   8.9682 142.5623 13.90705571699153

Volg SL-16 DEB in realtime met AllMySat

Download on the App Store